Hayward, WI

8:01 AM CST on November 24, 2017 (GMT -0600)
Sawyer County

Weather History for KHYR - September, 2012

Change the Weather History Date:

Friday, September 7, 2012

  Actual Average Record
Temperature  
Mean Temperature 56 °F -  
Max Temperature 64 °F 77 °F 90 °F (2003)
Min Temperature 50 °F 47 °F 37 °F (1998)
Degree Days  
Heating Degree Days 8    
Growing Degree Days 6 (Base 50)    
Moisture  
Dew Point 52 °F    
Average Humidity 85    
Maximum Humidity 100    
Minimum Humidity 54    
Precipitation  
Precipitation 0.23 in - - ()
Sea Level Pressure  
Sea Level Pressure 29.95 in    
Wind  
Wind Speed 1 mph (NW)    
Max Wind Speed 6 mph    
Max Gust Speed -    
Visibility 8 miles    
Events Rain    
Averages and records for this station are not official NWS values.
T = Trace of Precipitation, MM = Missing Value Source: NWS Daily Summary

Daily Weather History Graph

Daily Weather History Graph

Search for Another Location

Airport or City:

Trip Planner

Search our weather history database for the weather conditions in past years. The results will help you decide how hot, cold, wet, or windy it might be!

Date:

Astronomy

Sep. 07, 2012 Rise Set
Actual Time 6:34 AM CDT 7:31 PM CDT
Civil Twilight 6:04 AM CDT 8:02 PM CDT
Nautical Twilight 5:27 AM CDT 8:38 PM CDT
Astronomical Twilight 4:49 AM CDT 9:16 PM CDT
Moon 11:03 PM CDT (9/7) 1:50 PM CDT (9/7)
Length of Visible Light 13h 57m
Length of Day
12h 57m
Waning Gibbous, 58% of the Moon is Illuminated
Sep 7
Waning Gibbous
Sep 8
Last Quarter
Sep 15
New
Sep 22
First Quarter
Sep 29
Full

Hourly Weather History & Observations

Time (CDT) Temp. Dew Point Humidity Pressure Visibility Wind Dir Wind Speed Gust Speed Precip Events Conditions
12:34 AM 57.2 °F 55.4 °F 94% 29.95 in 9.0 mi Calm Calm - 0.01 in Rain Light Rain
12:43 AM 57.2 °F 55.4 °F 94% 29.95 in 8.0 mi Calm Calm - 0.01 in Rain Light Rain
12:53 AM 57.0 °F 55.0 °F 93% 29.94 in 10.0 mi Calm Calm - 0.02 in Rain Light Rain
12:55 AM 57.2 °F 55.4 °F 94% 29.95 in 10.0 mi Calm Calm - 0.00 in Rain Light Rain
1:53 AM 55.9 °F 54.0 °F 93% 29.94 in 9.0 mi NNE 3.5 mph - 0.01 in Rain Light Rain
2:53 AM 55.9 °F 54.0 °F 93% 29.94 in 8.0 mi Calm Calm - 0.07 in Rain Light Rain
3:12 AM 55.4 °F 53.6 °F 94% 29.93 in 2.5 mi Calm Calm - 0.05 in Rain Heavy Rain
3:22 AM 55.4 °F 53.6 °F 94% 29.93 in 7.0 mi Calm Calm - 0.06 in Rain Light Rain
3:53 AM 55.0 °F 54.0 °F 96% 29.92 in 6.0 mi Calm Calm - 0.08 in Rain Light Rain
4:53 AM 55.0 °F 53.1 °F 93% 29.92 in 10.0 mi Calm Calm - 0.00 in   Scattered Clouds
5:12 AM 55.4 °F 53.6 °F 94% 29.92 in 10.0 mi Calm Calm - N/A   Mostly Cloudy
5:37 AM 53.6 °F 51.8 °F 94% 29.92 in 1.8 mi Calm Calm - N/A   Mostly Cloudy
5:46 AM 53.6 °F 51.8 °F 94% 29.92 in 1.2 mi Calm Calm - N/A   Partly Cloudy
5:53 AM 53.1 °F 52.0 °F 96% 29.92 in 1.0 mi Calm Calm - N/A   Mist
5:58 AM 53.6 °F 51.8 °F 94% 29.92 in 2.0 mi Calm Calm - N/A   Scattered Clouds
6:07 AM 53.6 °F 51.8 °F 94% 29.93 in 3.0 mi SW 3.5 mph - N/A   Mostly Cloudy
6:53 AM 55.0 °F 53.1 °F 93% 29.94 in 10.0 mi Calm Calm - N/A   Overcast
7:53 AM 55.0 °F 53.1 °F 93% 29.97 in 10.0 mi Calm Calm - 0.01 in   Overcast
8:08 AM 55.4 °F 53.6 °F 94% 29.96 in 10.0 mi Calm Calm - N/A   Overcast
8:19 AM 55.4 °F 53.6 °F 94% 29.96 in 10.0 mi Calm Calm - N/A   Overcast
8:33 AM 55.4 °F 55.4 °F 100% 29.96 in 10.0 mi West 3.5 mph - N/A   Overcast
8:53 AM 57.0 °F 54.0 °F 89% 29.97 in 10.0 mi Variable 4.6 mph - N/A   Overcast
9:19 AM 57.2 °F 53.6 °F 88% 29.97 in 10.0 mi Calm Calm - N/A   Overcast
9:53 AM 59.0 °F 54.0 °F 83% 29.97 in 10.0 mi Calm Calm - N/A   Overcast
10:53 AM 61.0 °F 52.0 °F 72% 29.96 in 10.0 mi Calm Calm - N/A   Overcast
11:00 AM 62.6 °F 53.6 °F 72% 29.96 in 10.0 mi Variable 4.6 mph - N/A   Overcast
11:33 AM 60.8 °F 51.8 °F 72% 29.94 in 10.0 mi Calm Calm - 0.00 in Rain Light Rain
11:46 AM 60.8 °F 51.8 °F 72% 29.94 in 10.0 mi Variable 5.8 mph - 0.00 in   Overcast
11:53 AM 61.0 °F 51.1 °F 70% 29.95 in 10.0 mi Variable 4.6 mph - 0.00 in   Overcast
12:53 PM 62.1 °F 48.9 °F 62% 29.94 in 10.0 mi Variable 3.5 mph - N/A   Overcast
1:53 PM 62.1 °F 48.0 °F 60% 29.95 in 10.0 mi Variable 3.5 mph - N/A   Overcast
2:53 PM 63.0 °F 46.0 °F 54% 29.94 in 10.0 mi Variable 5.8 mph - N/A   Mostly Cloudy
3:53 PM 61.0 °F 46.9 °F 60% 29.95 in 10.0 mi Variable 4.6 mph - 0.00 in   Overcast
4:53 PM 63.0 °F 46.0 °F 54% 29.95 in 10.0 mi North 4.6 mph - N/A   Mostly Cloudy
5:53 PM 57.0 °F 50.0 °F 77% 29.97 in 10.0 mi Calm Calm - 0.02 in   Scattered Clouds
6:53 PM 55.0 °F 51.1 °F 86% 29.98 in 10.0 mi Calm Calm - 0.02 in   Overcast
7:53 PM 54.0 °F 50.0 °F 86% 29.98 in 10.0 mi Calm Calm - N/A   Mostly Cloudy
8:53 PM 50.0 °F 48.0 °F 93% 29.99 in 10.0 mi Calm Calm - N/A   Partly Cloudy
9:53 PM 52.0 °F 48.0 °F 86% 29.99 in 10.0 mi Calm Calm - N/A   Mostly Cloudy
10:53 PM 53.1 °F 48.0 °F 83% 29.99 in 10.0 mi Variable 3.5 mph - N/A   Overcast
11:53 PM 52.0 °F 46.9 °F 83% 29.98 in 10.0 mi Variable 3.5 mph - N/A   Clear